Regional Weather Roundup
Issued by NWS

Home | Current Version | Previous Version | Graphics & Text | Print | Product List | Glossary Off
Versions: 1 2 3 4 5 6 7 8 9 10 11 12 13 14 15 16 17 18 19 20 21 22 23 24 25 26 27 28 29 30 31 32 33 34 35 36 37 38 39 40 41 42 43 44 45 46 47 48 49 50

000
ASUS43 KDMX 240606
RWRIA

WEATHER ROUNDUP FOR IOWA
NATIONAL WEATHER SERVICE DES MOINES IA
1200 AM CST FRI NOV 24 2017

NOTE: "FAIR" INDICATES FEW OR NO CLOUDS BELOW 12,000 FEET WITH NO
SIGNIFICANT WEATHER AND/OR OBSTRUCTIONS TO VISIBILITY.

* - THESE STATIONS ARE NOT NWS STATIONS...THUS NOT UNDER NWS
QUALITY CONTROL.  THEY ALSO DO NOT REPORT WEATHER SUCH
AS PRECIPITATION OR FOG.

IAZ001>003-012>014-020>022-031>034-043>046-240700-
   NORTHWEST IOWA

CITY           SKY/WX    TMP DP  RH WIND       PRES   REMARKS
CARROLL *      PTCLDY    52  37  58 SW20G26   29.70F
CHEROKEE *     PTCLDY    50  39  65 S9        29.66F
DENISON *      CLEAR     52  37  58 S14G22    29.71F
LE MARS *      CLEAR     48  39  71 S9        29.64F
ORANGE CITY *  CLEAR     48  41  76 S10       29.63F
SHELDON *      CLEAR     50  39  66 S14       29.61F
SIOUX CITY     CLEAR     49  39  68 SE7       29.65F
6HR MIN TEMP:  46; 6HR MAX TEMP:  53;

SPENCER        CLEAR     49  38  65 SW14      29.63F
6HR MIN TEMP:  40; 6HR MAX TEMP:  51;

STORM LAKE *   CLEAR     50  39  66 SW13      29.66F
$$

IAZ055>058-069>071-079>083-090>094-240700-
   SOUTHWEST IOWA

CITY           SKY/WX    TMP DP  RH WIND       PRES   REMARKS
ATLANTIC *     MOCLDY    46  39  76 S8        29.75F
AUDUBON *      PTCLDY    52  39  62 S12       29.73F
CLARINDA *       N/A     50  39  66 S9          N/A
COUNCIL BLFS * PTCLDY    55  41  58 SW16      29.72F
CRESTON *      CLOUDY    50  37  62 S15       29.79F
HARLAN  *      PTCLDY    46  37  71 S9        29.76F
LAMONI         CLOUDY    50  36  58 S13       29.81F
6HR MIN TEMP:  47; 6HR MAX TEMP:  53;

RED OAK *      CLOUDY    50  39  66 S6        29.76F
SHENANDOAH *   CLOUDY    52  39  62 S7        29.77F
$$

IAZ047>049-059>061-072>074-084-240700-
   CENTRAL IOWA

CITY           SKY/WX    TMP DP  RH WIND       PRES   REMARKS
AMES           PTCLDY    40  35  83 S6        29.74F
6HR MIN TEMP:  39; 6HR MAX TEMP:  43;

ANKENY *       PTCLDY    50  36  57 S8        29.76F
BOONE *        CLOUDY    48  36  61 S9        29.72F
CHARITON *     CLOUDY    48  36  61 S12       29.80F
DES MOINES     CLOUDY    51  36  56 S15       29.76F
6HR MIN TEMP:  44; 6HR MAX TEMP:  51;

GRINNELL*      PTCLDY    42  33  69 S13       29.79F
KNOXVILLE *    CLOUDY    48  34  57 S13       29.78F HAZE
MARSHALLTOWN   PTCLDY    45  34  65 S13       29.74F
6HR MIN TEMP:  37; 6HR MAX TEMP:  45;

NEWTON *       PTCLDY    43  34  70 S10       29.78F
PELLA *        CLOUDY    45  34  65 S8        29.81F
PERRY *          N/A     47  34  60 S10       29.72F
$$

IAZ004>006-015-016-023>025-035-036-240700-
   NORTH CENTRAL IOWA

CITY           SKY/WX    TMP DP  RH WIND       PRES   REMARKS
ALGONA *       CLOUDY    43  36  75 S14       29.65F
CLARION *      PTCLDY    43  36  75 S13       29.69F
ESTHERVILLE    CLEAR     46  37  71 S16       29.61F
6HR MIN TEMP:  37; 6HR MAX TEMP:  47;

FORT DODGE *   PTCLDY    46  36  68 S13       29.68F
MASON CITY     CLEAR     42  32  67 S12       29.69F
6HR MIN TEMP:  33; 6HR MAX TEMP:  42;

FOREST CITY *    N/A     45  34  65 S9        29.67F
WEBSTER CITY * MOCLDY    45  36  70 S13       29.68F
IOWA FALLS *     N/A     46  35  65 S14       29.73F
$$

IAZ007>011-017>019-026>030-037>042-050>054-066-240700-
   NORTHEAST IOWA

CITY           SKY/WX    TMP DP  RH WIND       PRES   REMARKS
CEDAR RAPIDS   CLEAR     34  29  82 S10       29.80F WCI  26
6HR MIN TEMP:  31; 6HR MAX TEMP:  41;

CHARLES CITY * PTCLDY    39  32  75 S12G18    29.72F WCI  32
CLINTON *      CLEAR     32  27  81 S7        29.84F WCI  26
DECORAH *      PTCLDY    41  30  65 S13       29.71F
DUBUQUE        CLEAR     34  27  75 SW10      29.80F WCI  26
6HR MIN TEMP:  28; 6HR MAX TEMP:  34;

MONTICELLO *   CLEAR     34  28  80 S5        29.81F WCI  30
OELWEIN *      PTCLDY    37  32  81 S12       29.77F WCI  30
WATERLOO       CLOUDY    40  30  67 SE9       29.75F WCI  34
6HR MIN TEMP:  33; 6HR MAX TEMP:  41;

$$

IAZ064-065-067-068-078-240700-
   EAST CENTRAL IOWA

CITY           SKY/WX    TMP DP  RH WIND       PRES   REMARKS
DAVENPORT      CLEAR     34  27  75 S9        29.86F WCI  27
6HR MIN TEMP:  31; 6HR MAX TEMP:  38; 6HR PCP: TRACE;

IOWA CITY      CLEAR     32  27  81 CALM      29.85F
6HR MIN TEMP:  30; 6HR MAX TEMP:  40;

MT. PLEASANT * CLEAR     37  30  75 S9        29.85F WCI  31
MUSCATINE *    CLEAR     30  27  86 CALM      29.85F
QUAD CITIES    CLEAR     37  27  67 S5        29.85  WCI  33
6HR MIN TEMP:  30; 6HR MAX TEMP:  38;

$$

IAZ062-063-075>077-085>089-095>099-240700-
   SOUTHEAST IOWA

CITY           SKY/WX    TMP DP  RH WIND       PRES   REMARKS
BURLINGTON     CLEAR     35  30  82 S7        29.86F WCI  29
6HR MIN TEMP:  35; 6HR MAX TEMP:  41;

FAIRFIELD *    CLOUDY    41  30  65 S7        29.83F
FORT MADISON * CLEAR     39  32  75 S6        29.87F WCI  35
KEOKUK *       CLEAR     41  32  70 S7        29.86F
OSKALOOSA *      N/A     38  32  80 S9        29.82F WCI  31
OTTUMWA        PTCLDY    41  32  70 S8        29.82F
6HR MIN TEMP:  36; 6HR MAX TEMP:  42;

WASHINGTON *   CLEAR     36  32  87 S10       29.84F WCI  28
$$

ABBREVIATIONS USED IN REMARKS
   TC - TEMPERATURES IN CELSIUS
  WCI - WIND CHILL INDEX
   HX - HEAT INDEX
  VSB - VISIBILITY
$$





USA.gov is the U.S. government's official web portal to all federal, state and local government web resources and services.